Flamingo-1

operational
NORAD ID: 67391 Int'l Des: 2026-004 Owner: VYOMA Country: D
NOTLE

About Flamingo-1

Description loading...

Live Position

Loading 3D Globe...

Upcoming Passes

Altitude History

Altitude vs Time

uPlot chart will show altitude changes over time

Two-Line Element Set

1 67391U 26004AE 26047.49248954 .00005185 00000-0 26323-3 0 9990
2 67391 97.4520 48.2709 0006089 43.9762 316.1955 15.17323256 5447
Epoch: Feb 16, 2026 • Age: 5 hours

Current Status

Altitude 518.6 km
Velocity 7.61 km/s
Sub-Earth Point 23.83°N, 173.71°W
Launch Date Jan 11, 2026
Age 36 days
Type other

Technical Details

Classification Payload
Mass 100.00 kg
Dry Mass 100.00 kg
Total Mass 100.00 kg
Length 0.70 m
Diameter 0.50 m
Span 0.70 m
Shape Box
Manufacturer ENDUR
Bus Type ESPASat
Phase Status In Orbit
Owner/State VYOMA/D

Large Constellations

Loading constellations...